Regional Weather Roundup
Issued by NWS

Home | Current Version | Previous Version | Text Only | Print | Product List | Glossary Off
Versions: 1 2 3 4 5 6 7 8 9 10 11 12 13 14 15 16 17 18 19 20 21 22 23 24 25 26 27 28 29 30 31 32 33 34 35 36 37 38 39 40 41 42 43 44 45 46 47 48 49 50

000
ASUS43 KBIS 230602
RWRND

NORTH DAKOTA REGIONAL WEATHER ROUNDUP
NATIONAL WEATHER SERVICE BISMARCK ND
100 AM CDT WED MAY 23 2018

NOTE: "FAIR" INDICATES FEW OR NO CLOUDS BELOW 12,000 FEET WITH NO
SIGNIFICANT WEATHER AND/OR OBSTRUCTIONS TO VISIBILITY.


NDZ001>003-009>011-017-230700-
NORTHWEST NORTH DAKOTA

CITY           SKY/WX    TMP DP  RH WIND       PRES   REMARKS
WILLISTON      LGT RAIN  65  55  70 E3        29.95R
6HR MIN TEMP:  65; 6HR MAX TEMP:  78; 6HR PCP: TRACE;

MINOT          CLOUDY    62  52  69 CALM      29.94S
MINOT AFB      CLOUDY    62  53  73 S6        29.93R
$$

NDZ018>021-031>035-040>046-230700-
SOUTHWEST NORTH DAKOTA

CITY           SKY/WX    TMP DP  RH WIND       PRES   REMARKS
BISMARCK       CLOUDY    64  58  80 E16       29.96F
6HR MIN TEMP:  63; 6HR MAX TEMP:  80; 6HR PCP:  0.18;

DICKINSON      CLOUDY    59  55  87 E6        29.95S
GARRISON         N/A     61  53  75 E9        29.96R
6HR MIN TEMP:  60; 6HR MAX TEMP:  82;

HETTINGER ARPT CLOUDY    62  55  77 NE12      29.95F
$$

NDZ004>008-012>016-024-026-027-054-230700-
NORTHEAST NORTH DAKOTA

CITY           SKY/WX    TMP DP  RH WIND       PRES   REMARKS
GRAND FORKS    FAIR      64  56  75 SE8       29.98S
GRND FRKS AFB  FAIR      65  55  68 SE7       29.98F
DEVILS LAKE    MOCLDY    64  56  75 SW8       30.00R
$$

NDZ022-023-025-028>030-036>039-047>053-230700-
SOUTHEAST NORTH DAKOTA

CITY           SKY/WX    TMP DP  RH WIND       PRES   REMARKS
FARGO          FAIR      68  56  65 SE12      29.99S
6HR MIN TEMP:  68; 6HR MAX TEMP:  82;

JAMESTOWN      CLOUDY    64  55  72 S8        29.96F
$$




USA.gov is the U.S. government's official web portal to all federal, state and local government web resources and services.